<?xml version="1.0" encoding="UTF-8" standalone="no" ?>
<gpx xmlns="http://www.topografix.com/GPX/1/1" xmlns:xsi="http://www.w3.org/2001/XMLSchema-instance" xsi:schemaLocation="http://www.topografix.com/GPX/1/1 http://www.topografix.com/GPX/1/1/gpx.xsd" version="1.1" creator="VisuGPX - https://www.visugpx.com">
  <metadata>
    <name>GITER Poitou Charentes : boucle 86</name>
    <desc><![CDATA[Partie en Vienne de la Boucle centrale
[url]http://cdte86.free.fr/spip.php?article137[/url]]]></desc>
  </metadata>
  <trk>
    <name><![CDATA[Trk007]]></name>
    <trkseg>
      <trkpt lat="46.32874" lon="0.25154">
        <ele>148</ele>
        <time>2007-05-01T13:35:12Z</time>
      </trkpt>
      <trkpt lat="46.32981" lon="0.25344">
        <ele>150</ele>
        <time>2007-05-01T13:35:12Z</time>
      </trkpt>
      <trkpt lat="46.33203" lon="0.25433">
        <ele>140</ele>
        <time>2007-05-01T13:35:12Z</time>
      </trkpt>
      <trkpt lat="46.33333" lon="0.25435">
        <ele>129</ele>
        <time>2007-05-01T13:35:12Z</time>
      </trkpt>
      <trkpt lat="46.33511" lon="0.25545">
        <ele>129</ele>
        <time>2007-05-01T13:35:12Z</time>
      </trkpt>
      <trkpt lat="46.33825" lon="0.25514">
        <ele>127</ele>
        <time>2007-05-01T13:35:12Z</time>
      </trkpt>
      <trkpt lat="46.3408" lon="0.25179">
        <ele>119</ele>
        <time>2007-05-01T13:35:12Z</time>
      </trkpt>
      <trkpt lat="46.3416" lon="0.25111">
        <ele>118</ele>
        <time>2007-05-01T13:35:12Z</time>
      </trkpt>
      <trkpt lat="46.34349" lon="0.25136">
        <ele>111</ele>
        <time>2007-05-01T13:35:12Z</time>
      </trkpt>
      <trkpt lat="46.34409" lon="0.25173">
        <ele>110</ele>
        <time>2007-05-01T13:35:12Z</time>
      </trkpt>
      <trkpt lat="46.34534" lon="0.25136">
        <ele>110</ele>
        <time>2007-05-01T13:35:12Z</time>
      </trkpt>
      <trkpt lat="46.34637" lon="0.25112">
        <ele>107</ele>
        <time>2007-05-01T13:35:12Z</time>
      </trkpt>
      <trkpt lat="46.34799" lon="0.25099">
        <ele>106</ele>
        <time>2007-05-01T13:35:12Z</time>
      </trkpt>
      <trkpt lat="46.34884" lon="0.25083">
        <ele>107</ele>
        <time>2007-05-01T13:35:12Z</time>
      </trkpt>
      <trkpt lat="46.34891" lon="0.24972">
        <ele>111</ele>
        <time>2007-05-01T13:35:12Z</time>
      </trkpt>
      <trkpt lat="46.34939" lon="0.2488">
        <ele>114</ele>
        <time>2007-05-01T13:35:12Z</time>
      </trkpt>
      <trkpt lat="46.35207" lon="0.24811">
        <ele>110</ele>
        <time>2007-05-01T13:35:12Z</time>
      </trkpt>
      <trkpt lat="46.34939" lon="0.2488">
        <ele>114</ele>
        <time>2007-05-01T13:35:12Z</time>
      </trkpt>
      <trkpt lat="46.34891" lon="0.24972">
        <ele>111</ele>
        <time>2007-05-01T13:35:12Z</time>
      </trkpt>
      <trkpt lat="46.34828" lon="0.25007">
        <ele>111</ele>
        <time>2007-05-01T13:35:12Z</time>
      </trkpt>
      <trkpt lat="46.34364" lon="0.2496">
        <ele>119</ele>
        <time>2007-05-01T13:35:12Z</time>
      </trkpt>
      <trkpt lat="46.34156" lon="0.2489">
        <ele>114</ele>
        <time>2007-05-01T13:35:12Z</time>
      </trkpt>
      <trkpt lat="46.33928" lon="0.24756">
        <ele>116</ele>
        <time>2007-05-01T13:35:12Z</time>
      </trkpt>
      <trkpt lat="46.33764" lon="0.24639">
        <ele>115</ele>
        <time>2007-05-01T13:35:12Z</time>
      </trkpt>
      <trkpt lat="46.33647" lon="0.2439">
        <ele>120</ele>
        <time>2007-05-01T13:35:12Z</time>
      </trkpt>
      <trkpt lat="46.33578" lon="0.24315">
        <ele>120</ele>
        <time>2007-05-01T13:35:12Z</time>
      </trkpt>
      <trkpt lat="46.33519" lon="0.24518">
        <ele>119</ele>
        <time>2007-05-01T13:35:12Z</time>
      </trkpt>
      <trkpt lat="46.33433" lon="0.24509">
        <ele>122</ele>
        <time>2007-05-01T13:35:12Z</time>
      </trkpt>
      <trkpt lat="46.33306" lon="0.24448">
        <ele>129</ele>
        <time>2007-05-01T13:35:12Z</time>
      </trkpt>
      <trkpt lat="46.33161" lon="0.24376">
        <ele>132</ele>
        <time>2007-05-01T13:35:12Z</time>
      </trkpt>
      <trkpt lat="46.3293" lon="0.24314">
        <ele>132</ele>
        <time>2007-05-01T13:35:12Z</time>
      </trkpt>
      <trkpt lat="46.32894" lon="0.24315">
        <ele>131</ele>
        <time>2007-05-01T13:35:12Z</time>
      </trkpt>
      <trkpt lat="46.32956" lon="0.24468">
        <ele>138</ele>
        <time>2007-05-01T13:35:12Z</time>
      </trkpt>
      <trkpt lat="46.33005" lon="0.24707">
        <ele>143</ele>
        <time>2007-05-01T13:35:12Z</time>
      </trkpt>
      <trkpt lat="46.33038" lon="0.24803">
        <ele>146</ele>
        <time>2007-05-01T13:35:12Z</time>
      </trkpt>
      <trkpt lat="46.32963" lon="0.24897">
        <ele>146</ele>
        <time>2007-05-01T13:35:12Z</time>
      </trkpt>
      <trkpt lat="46.32874" lon="0.25154">
        <ele>148</ele>
        <time>2007-05-01T13:35:12Z</time>
      </trkpt>
    </trkseg>
  </trk>
</gpx>